Regional Weather Roundup
Issued by NWS

Home | Current Version | Previous Version | Graphics & Text | Print | Product List | Glossary On
Versions: 1 2 3 4 5 6 7 8 9 10 11 12 13 14 15 16 17 18 19 20 21 22 23 24 25 26 27 28 29 30 31 32 33 34 35 36 37 38 39 40 41 42 43 44 45 46 47 48 49 50
000
ASUS43 KDTX 011410
RWRMI
MICHIGAN HOURLY REGIONAL WEATHER ROUNDUP
NATIONAL WEATHER SERVICE DETROIT/PONTIAC MI
1000 AM EDT TUE SEP 01 2015

NOTE: "FAIR" INDICATES FEW OR NO CLOUDS BELOW 12,000 FEET WITH NO
SIGNIFICANT WEATHER AND/OR OBSTRUCTION TO VISIBILITY.

MIZ047>049-052>055-059>063-066>070-074>076-081>083-011500-
SOUTHEAST LOWER MICHIGAN

CITY           SKY/WX    TMP DP  RH WIND       PRES   REMARKS
ADRIAN         SUNNY     74  68  81 W3        30.12S
ALMA           SUNNY     70  70  99 S3        30.09S FOG
ANN ARBOR      SUNNY     76  70  82 SW5       30.11R
BAD AXE        SUNNY     69  68  99 W5        30.10S FOG
CARO           SUNNY     68  67  97 CALM      30.09S FOG
DETROIT CITY   SUNNY     78  67  68 W6        30.10S
DETROIT        SUNNY     77  69  76 S5        30.11S
FLINT          SUNNY     75  68  78 W5        30.10S
GROSSE ILE     SUNNY     75  72  88 S3        30.09F
HILLSDALE      SUNNY     78  74  88 W5        30.13R
HOWELL         SUNNY     74  71  88 SW5       30.11S

CITY           SKY/WX    TMP DP  RH WIND       PRES   REMARKS
JACKSON        SUNNY     76  71  85 W7        30.11F
LAMBERTVILLE   SUNNY     79  70  75 W3        30.12S
LANSING        SUNNY     75  69  81 W5        30.10S
LAPEER         FAIR      70  68  93 CALM      30.11S
MASON          SUNNY     74  71  91 CALM      30.11S
MONROE         SUNNY     76  69  77 SW3       30.10S
MT. CLEMENS    MOSUNNY   76  68  75 CALM      30.09R HAZE
PONTIAC        SUNNY     74  67  78 SW3       30.10S
PORT HOPE        N/A     70  66  87 VRB5      30.06S
PORT HURON     SUNNY     70  70 100 W3        30.10S
TRI CITIES     MOSUNNY   71  67  87 CALM      30.09F FOG
MIDLAND        CLOUDY    69  67  96 CALM      30.08S FOG
TROY           SUNNY     76  67  73 CALM      30.12S
SAGINAW HB     MOSUNNY   70  68  94 SW3       30.08S FOG
$$
MIZ043>046-050>051-056>058-064>065-071>073-077>080-011500-
SOUTHWEST LOWER MICHIGAN

CITY           SKY/WX    TMP DP  RH WIND       PRES   REMARKS
BATTLE CREEK   SUNNY     76  71  85 SW7       30.11S
BENTON HARBOR  SUNNY     76  71  85 S6        30.08S
BIG RAPIDS     MOSUNNY   66  65  97 CALM      30.08S
COLDWATER      SUNNY     75  72  88 CALM      30.12S
FREMONT        PTSUNNY   69  69 100 S3        30.06F FOG
HOLLAND        SUNNY     76  72  87 S6        30.08S FOG
GRAND RAPIDS   MOSUNNY   76  72  87 SW6       30.08F FOG
IONIA          FAIR      74  71  91 SW5       30.08S
KALAMAZOO      SUNNY     77  70  79 SW3       30.10F
LUDINGTON      SUNNY     76  72  86 CALM      30.04F FOG
MARSHALL       SUNNY     75  71  87 SW5       30.11S
MOUNT PLEASANT SUNNY     72  69  93 CALM      30.07F FOG
MUSKEGON       MOSUNNY   77  70  79 S8        30.07S HAZE
SOUTH HAVEN    SUNNY     76  70  83 S6        30.07F
$$
MIZ016>042-011500-
NORTHERN LOWER MICHIGAN

CITY           SKY/WX    TMP DP  RH WIND       PRES   REMARKS
ALPENA         SUNNY     71  67  87 SW5       30.05F
BEAVER ISLAND  MOSUNNY   72  68  87 SW8       30.01F
BELLAIRE       SUNNY     72  67  84 S3        30.04F
CADILLAC       SUNNY     70  68  93 SW5       30.08S FOG
CHARLEVOIX     SUNNY     73  69  88 S5        30.05F
FRANKFORT      MOSUNNY   75  69  81 CALM      30.03F
GAYLORD        MOSUNNY   69  69 100 SW9       30.07F FOG
GRAYLING       SUNNY     69  66  90 CALM      30.08S FOG
HARBOR SPRINGS SUNNY     70  66  89 CALM      30.03F FOG
HOUGHTON LAKE  SUNNY     70  66  87 SW5       30.08F FOG
MANISTEE       SUNNY     68  64  88 SE5       30.05S
OSCODA         SUNNY     71  67  89 CALM      30.06S
PELLSTON       SUNNY     74  69  85 VRB3      30.02F
ROGERS CITY    SUNNY     73  68  85 W7        30.04F
TRAVERSE CITY  SUNNY     75  68  78 SW5       30.03F HAZE
$$
MIZ007>008-015-011500-
EASTERN UPPER MICHIGAN

CITY           SKY/WX    TMP DP  RH WIND       PRES   REMARKS
KINROSS        CLOUDY    70  70 100 SW6       30.01S
MACKINAC ISLAN SUNNY     70  67  90 SW7       30.02S FOG
NEWBERRY       SUNNY     71  67  88 S10       29.99F FOG
S. S. MARIE    CLOUDY    68  67  96 SW6       29.99F FOG
MUNISING         N/A     75  68  78 SW9       29.95F
$$
MIZ004>006-011>014-085-011500-
CENTRAL UPPER MICHIGAN

CITY           SKY/WX    TMP DP  RH WIND       PRES   REMARKS
MANISTIQUE     MOSUNNY   68  65  92 S8        29.99F FOG
ESCANABA       MOSUNNY   70  68  94 S3        29.97F
MENOMINEE      MOSUNNY   73  66  78 SW6       29.98F
SAWYER-GWINN   CLOUDY    66  64  94 SW5       29.99R FOG
$$
MIZ001>003-009>011-084-011500-
WESTERN UPPER MICHIGAN

CITY           SKY/WX    TMP DP  RH WIND       PRES   REMARKS
IRON MOUNTAIN  MOSUNNY   69  66  90 S3        29.98S
HOUGHTON       PTSUNNY   73  69  87 SW6       29.91S
IRONWOOD       MOSUNNY   75  70  83 SW6       29.90S
$$

ABBREVIATIONS USED IN REMARKS
   TC - TEMPERATURE IN CELSIUS
  WCI - WIND CHILL INDEX
   HX - HEAT INDEX
  VSB - VISIBILITY




USA.gov is the U.S. government's official web portal to all federal, state and local government web resources and services.